{"data":{"norad_id":60256,"epoch":"2026-09-21T06:57:15.522336Z","epoch_age_seconds":113481,"freshness":"FRESH","line1":"1 60256U 24131B   26264.28976299  .00045659  00000+0  11586-2 0  9993","line2":"2 60256  53.1574 221.2278 0005408  71.4545 288.7047 15.39238152121709","mean_motion":15.39238152,"eccentricity":0.0005408,"inclination_deg":53.1574,"raan_deg":221.2278,"arg_perigee_deg":71.4545,"mean_anomaly_deg":288.7047,"bstar":0.0011586,"rev_number":12170,"period_min":93.552774671609,"perigee_km":444.66914214411,"apogee_km":452.05268228596,"semimajor_km":6826.497912215,"source":"CELESTRAK","updated_at":"2026-09-22T09:00:49.186189Z"}}